, FL

(GMT )
Whiting Fld NAS

Weather History for KNSE - September, 2012

Change the Weather History Date:

Friday, September 7, 2012

  Actual Average Record
Temperature  
Mean Temperature 80 °F -  
Max Temperature 90 °F 86 °F 93 °F (2010)
Min Temperature 71 °F 68 °F 55 °F (2011)
Cooling Degree Days 16    
Growing Degree Days 30 (Base 50)    
Moisture  
Dew Point 74 °F    
Average Humidity 87    
Maximum Humidity 100    
Minimum Humidity 65    
Precipitation  
Precipitation 0.28 in - - ()
Sea Level Pressure  
Sea Level Pressure 29.89 in    
Wind  
Wind Speed 2 mph (SSE)    
Max Wind Speed 12 mph    
Max Gust Speed -    
Visibility 6 miles    
Events Fog , Rain    
Averages and records for this station are not official NWS values.
T = Trace of Precipitation, MM = Missing Value Source: NWS Daily Summary

Daily Weather History Graph

Daily Weather History Graph

Search for Another Location

Airport or City:

Trip Planner

Search our weather history database for the weather conditions in past years. The results will help you decide how hot, cold, wet, or windy it might be!

Date:

Astronomy

Sep. 07, 2012 Rise Set
Actual Time 6:28 AM CDT 7:03 PM CDT
Civil Twilight 6:03 AM CDT 7:27 PM CDT
Nautical Twilight 5:35 AM CDT 7:55 PM CDT
Astronomical Twilight 5:06 AM CDT 8:24 PM CDT
Moon 11:27 PM CDT (9/7) 12:50 PM CDT (9/7)
Length of Visible Light 13h 23m
Length of Day
12h 34m
Waning Gibbous, 58% of the Moon is Illuminated
Sep 7
Waning Gibbous
Sep 8
Last Quarter
Sep 15
New
Sep 22
First Quarter
Sep 29
Full

Hourly Weather History & Observations

Time (CDT) Temp. Heat Index Dew Point Humidity Pressure Visibility Wind Dir Wind Speed Gust Speed Precip Events Conditions
12:56 AM 75.0 °F - 73.0 °F 94% 29.88 in 7.0 mi Calm Calm - N/A   Clear
1:56 AM 73.9 °F - 73.0 °F 97% 29.88 in 4.0 mi Calm Calm - 0.00 in   Clear
2:23 AM 73.4 °F - 73.4 °F 100% 29.92 in 1.8 mi Calm Calm - 0.00 in   Clear
2:35 AM 73.4 °F - 73.4 °F 100% 29.91 in 0.8 mi Calm Calm - 0.00 in   Clear
2:56 AM 73.9 °F - 73.0 °F 97% 29.87 in 1.8 mi Calm Calm - 0.00 in   Clear
3:07 AM 73.4 °F - 71.6 °F 94% 29.91 in 0.5 mi Calm Calm - N/A Fog Fog
3:15 AM 73.4 °F - 71.6 °F 94% 29.91 in 0.2 mi Calm Calm - N/A Fog Fog
3:29 AM 73.4 °F - 71.6 °F 94% 29.91 in 0.5 mi Calm Calm - N/A Fog Fog
3:38 AM 73.4 °F - 71.6 °F 94% 29.91 in 1.0 mi Calm Calm - N/A   Mist
3:42 AM 73.4 °F - 71.6 °F 94% 29.91 in 2.0 mi Calm Calm - N/A   Partly Cloudy
3:56 AM 73.0 °F - 72.0 °F 96% 29.87 in 1.0 mi Calm Calm - N/A   Mist
4:00 AM 71.6 °F - 71.6 °F 100% 29.92 in 0.8 mi Calm Calm - N/A   Clear
4:22 AM 73.4 °F - 71.6 °F 94% 29.91 in 1.8 mi Calm Calm - N/A   Clear
4:53 AM 71.6 °F - 71.6 °F 100% 29.92 in 3.0 mi Calm Calm - N/A   Clear
4:56 AM 72.0 °F - 71.1 °F 97% 29.87 in 4.0 mi Calm Calm - N/A   Clear
5:32 AM 71.6 °F - 69.8 °F 94% 29.92 in 2.5 mi Calm Calm - N/A   Partly Cloudy
5:36 AM 71.6 °F - 69.8 °F 94% 29.93 in 1.0 mi Calm Calm - N/A   Mist
5:44 AM 71.6 °F - 69.8 °F 94% 29.93 in 0.5 mi North 3.5 mph - N/A Fog Fog
5:56 AM 72.0 °F - 71.1 °F 97% 29.88 in 3.0 mi Calm Calm - N/A   Scattered Clouds
6:56 AM 73.0 °F - 72.0 °F 96% 29.90 in 3.0 mi NNE 3.5 mph - N/A   Scattered Clouds
7:36 AM 75.2 °F - 73.4 °F 94% 29.95 in 6.0 mi Calm Calm - N/A   Scattered Clouds
7:56 AM 75.9 °F - 75.0 °F 97% 29.91 in 7.0 mi Calm Calm - N/A   Scattered Clouds
8:56 AM 82.0 °F 90.2 °F 77.0 °F 85% 29.91 in 10.0 mi East 3.5 mph - N/A   Scattered Clouds
9:56 AM 86.0 °F 96.0 °F 75.9 °F 72% 29.92 in 10.0 mi East 5.8 mph - N/A   Scattered Clouds
10:40 AM 87.8 °F 97.6 °F 75.2 °F 66% 29.97 in 10.0 mi SE 5.8 mph - N/A   Mostly Cloudy
10:56 AM 84.9 °F 93.3 °F 75.0 °F 72% 29.93 in 10.0 mi SSE 3.5 mph - N/A   Mostly Cloudy
11:56 AM 88.0 °F 98.5 °F 75.9 °F 67% 29.91 in 10.0 mi Calm Calm - N/A   Mostly Cloudy
12:56 PM 90.0 °F 102.5 °F 77.0 °F 65% 29.89 in 10.0 mi South 5.8 mph - N/A   Mostly Cloudy
1:56 PM 84.9 °F 95.3 °F 77.0 °F 77% 29.87 in 7.0 mi SE 8.1 mph - 0.02 in Rain Rain
2:01 PM 84.2 °F 92.3 °F 75.2 °F 74% 29.92 in 3.0 mi SSW 8.1 mph - 0.10 in Rain Heavy Rain
2:16 PM 86.0 °F 99.3 °F 78.8 °F 79% 29.90 in 7.0 mi SW 3.5 mph - 0.26 in   Mostly Cloudy
2:56 PM 86.0 °F 96.9 °F 77.0 °F 74% 29.84 in 10.0 mi Variable 3.5 mph - 0.26 in   Mostly Cloudy
3:56 PM 89.1 °F 100.2 °F 75.9 °F 65% 29.83 in 10.0 mi South 10.4 mph - N/A   Scattered Clouds
4:56 PM 88.0 °F 97.5 °F 75.0 °F 65% 29.82 in 10.0 mi South 11.5 mph - N/A   Scattered Clouds
5:56 PM 86.0 °F 93.8 °F 73.9 °F 67% 29.83 in 10.0 mi SSW 10.4 mph - N/A   Scattered Clouds
6:56 PM 82.9 °F 90.2 °F 75.0 °F 77% 29.83 in 10.0 mi SSE 8.1 mph - N/A   Scattered Clouds
7:56 PM 80.1 °F 85.4 °F 75.9 °F 87% 29.82 in 10.0 mi SSE 5.8 mph - N/A   Scattered Clouds
8:56 PM 79.0 °F - 75.9 °F 90% 29.82 in 10.0 mi SE 4.6 mph - N/A   Partly Cloudy
9:56 PM 78.1 °F - 75.0 °F 90% 29.82 in 10.0 mi Calm Calm - N/A   Clear
10:56 PM 77.0 °F - 75.0 °F 94% 29.81 in 10.0 mi SE 3.5 mph - N/A   Clear
11:56 PM 75.9 °F - 73.9 °F 94% 29.80 in 10.0 mi Calm Calm - 0.00 in   Clear